Retour au catalogue

STARLINK-33954

ActifCommunicationsVLEO
NORAD 63863·PAYLOAD·🇺🇸 United States

Lancé May 7, 2025 depuis Cape Canaveral Space Force Station

Loading…

Prochains Passages (prochaines 24 heures)

TLE

FraisSource: CelesTrak SupGP

Époque: Sep 14, 2026, 22:52 UTC

1 63863C 25093AD  26257.95326389  .00055954  00000+0  20270-2 0  2579
2 63863  43.0003  89.2788 0001727 265.8350 125.9274 15.27544837    13

Suivez STARLINK-33954 en temps réel avec AllMySat

Download on the App Store